Regional Weather Roundup
Issued by NWS Tiyan, Guam

Home | Current Version | Previous Version | Text Only | Print | Product List | Glossary On
Versions: 1 2 3 4 5 6 7 8 9 10 11 12 13 14 15 16 17 18 19 20 21 22 23 24 25 26 27 28 29 30 31 32 33 34 35 36 37 38 39 40 41 42 43 44 45 46
000
ASGM40 PGUM 272110
RWRGUM
WEATHER ROUNDUP FOR THE MARIANAS
NATIONAL WEATHER SERVICE TIYAN GU
700 AM CHST WED JAN 28 2015

GUZ001>004-272200-
MARIANA ISLANDS-

CITY           SKY/WX    TMP DP  RH WIND       PRES   REMARKS
GUAM AIRPORT   NOT AVBL
ANDERSEN AFB   CLEAR     77  73  88 NE6       29.86R
ROTA AIRPORT   MOCLDY    75  73  94 VRB6      29.88
TINIAN AP      NOT AVBL
SAIPAN AP      CLEAR     75  73  94 E7        29.86R

$$



USA.gov is the U.S. government's official web portal to all federal, state and local government web resources and services.